Location: Platte
(43.3870°N, 98.8440°W)
Time: 06:04:13
(UTC-05:00)

Landsat 7 - Visible Passes

Search period start: 07 July 2015 00:00
Search period end: 17 July 2015 00:00
Orbit: 701 x 703 km, 98.2° (Epoch: 07 July)

Date Brightness Start Highest point End Pass type
(mag) Time Alt. Az. Time Alt. Az. Time Alt. Az.
07 Jul 4.3 22:44:34 19° SE 22:47:45 48° ENE 22:52:21 10° N visible
08 Jul 5.9 00:23:27 14° SW 00:25:49 19° W 00:29:09 10° NW visible
08 Jul 5.7 21:50:28 10° E 21:53:11 16° ENE 21:56:04 10° NNE visible
08 Jul 4.0 23:27:51 26° S 23:30:28 66° W 23:35:14 10° NNW visible
09 Jul 4.6 22:32:16 16° SE 22:35:37 37° ENE 22:39:59 10° N visible
10 Jul 5.5 00:11:09 18° SW 00:13:29 25° W 00:17:22 10° NW visible
10 Jul 3.8 23:15:34 26° SSE 23:18:15 86° WSW 23:23:02 10° NNW visible
11 Jul 5.0 22:19:58 13° ESE 22:23:28 29° ENE 22:27:34 10° N visible
11 Jul 5.1 23:58:52 21° SW 00:01:11 33° W 00:05:26 10° NNW visible
12 Jul 3.8 23:03:16 25° SSE 23:06:03 72° ENE 23:10:49 10° N visible
13 Jul 6.2 00:42:16 10° WSW 00:44:26 13° W 00:46:22 10° WNW visible
13 Jul 5.3 22:07:45 10° ESE 22:11:21 22° ENE 22:15:04 10° NNE visible
13 Jul 4.7 23:46:34 25° SSW 23:48:53 43° W 23:53:25 10° NNW visible
14 Jul 4.1 22:50:59 22° SE 22:53:53 55° ENE 22:58:32 10° N visible
15 Jul 6.0 00:29:53 13° WSW 00:32:02 17° W 00:35:00 10° NW visible
15 Jul 5.6 21:56:13 10° ESE 21:59:15 18° ENE 22:02:27 10° NNE visible
15 Jul 4.2 23:34:18 28° SSW 23:36:38 57° W 23:41:20 10° NNW visible
16 Jul 4.4 22:38:43 19° SE 22:41:43 42° ENE 22:46:12 10° N visible
